Jaipur, India

9:36 PM IST on September 28, 2016 (GMT +0530)
Jaipur

Weather History for VIJP - November, 2012

Change the Weather History Date:

Monday, November 19, 2012

  Actual Average Record
Temperature  
Mean Temperature 69 °F -  
Max Temperature 82 °F - - ()
Min Temperature 56 °F - - ()
Cooling Degree Days 4    
Growing Degree Days 19 (Base 50)    
Moisture  
Dew Point 46 °F    
Average Humidity 44    
Maximum Humidity 67    
Minimum Humidity 15    
Precipitation  
Precipitation 0.00 in - - ()
Sea Level Pressure  
Sea Level Pressure 29.99 in    
Wind  
Wind Speed 1 mph ()    
Max Wind Speed 9 mph    
Max Gust Speed -    
Visibility 1.4 miles    
Events      
T = Trace of Precipitation, MM = Missing Value Source: Averaged Metar Reports

Daily Weather History Graph

Daily Weather History Graph

Search for Another Location

Airport or City:

Trip Planner

Search our weather history database for the weather conditions in past years. The results will help you decide how hot, cold, wet, or windy it might be!

Date:

Astronomy

Nov. 19, 2012 Rise Set
Actual Time 6:49 AM IST 5:34 PM IST
Civil Twilight 6:24 AM IST 5:59 PM IST
Nautical Twilight 5:56 AM IST 6:27 PM IST
Astronomical Twilight 5:28 AM IST 6:55 PM IST
Moon 11:45 AM IST (11/19) 11:19 PM IST (11/19)
Length of Visible Light 11h 34m
Length of Day
10h 45m
Waxing Crescent, 36% of the Moon is Illuminated
Nov 19
Waxing Crescent
Nov 20
First Quarter
Nov 28
Full
Dec 6
Last Quarter
Dec 13
New

Hourly Weather History & Observations

Time (IST) Temp. Dew Point Humidity Pressure Visibility Wind Dir Wind Speed Gust Speed Precip Events Conditions
12:00 AM 62.6 °F 46.4 °F 55% 29.98 in 1.2 mi Calm Calm - N/A   Smoke
1:00 AM 62.6 °F 46.4 °F 55% 29.98 in 1.2 mi Calm Calm - N/A   Smoke
2:00 AM 62.6 °F 48.2 °F 59% 29.98 in 1.2 mi Calm Calm - N/A   Smoke
3:00 AM 60.8 °F 46.4 °F 59% 29.95 in 1.2 mi Calm Calm - N/A   Smoke
4:00 AM 59.0 °F 48.2 °F 67% 29.95 in 1.2 mi Calm Calm - N/A   Smoke
5:00 AM 57.2 °F 46.4 °F 67% 29.95 in 1.2 mi Calm Calm - N/A   Smoke
5:30 AM 58 °F 48 °F 59% 29.95 in 1 mi Calm Calm - -   Smoke
6:00 AM 59.0 °F 46.4 °F 63% 29.98 in 1.2 mi Calm Calm - N/A   Smoke
7:00 AM 59.0 °F 44.6 °F 59% 30.01 in 1.1 mi Calm Calm - N/A   Smoke
8:00 AM 62.6 °F 48.2 °F 59% 30.01 in 1.2 mi Variable 2.3 mph - N/A   Smoke
8:30 AM 67 °F 51 °F 45% 29.98 in 1 mi Calm Calm - -   Smoke
9:00 AM 71.6 °F 46.4 °F 41% 30.04 in 1.6 mi Calm Calm - N/A   Smoke
10:00 AM 75.2 °F 46.4 °F 36% 30.06 in 1.6 mi ESE 6.9 mph - N/A   Smoke
11:00 AM 77.0 °F 46.4 °F 34% 30.06 in 1.6 mi SE 5.8 mph - N/A   Smoke
11:30 AM 79 °F 47 °F 22% 29.98 in 1 mi SSE 5.8 mph - -   Smoke
1:00 PM 80.6 °F 44.6 °F 28% 30.01 in 1.9 mi Variable 2.3 mph - N/A   Smoke
2:00 PM 80.6 °F 44.6 °F 28% 29.98 in 2.2 mi South 4.6 mph - N/A   Haze
2:30 PM 82 °F 43 °F 15% 29.92 in 1 mi ENE 4.6 mph - -   Haze
3:00 PM 82.4 °F 44.6 °F 26% 29.98 in 2.2 mi Variable 1.2 mph - N/A   Haze
4:00 PM 80.6 °F 42.8 °F 26% 29.98 in 2.2 mi Calm Calm - N/A   Haze
5:00 PM 78.8 °F 44.6 °F 30% 29.98 in 2.2 mi Calm Calm - N/A   Haze
7:00 PM 71.6 °F 48.2 °F 43% - 1.2 mi Calm Calm - N/A   Smoke
8:00 PM 68.0 °F 48.2 °F 49% 30.01 in 1.2 mi Variable 2.3 mph - N/A   Smoke
9:00 PM 71.6 °F 46.4 °F 41% 30.04 in 1.2 mi Calm Calm - N/A   Smoke
10:00 PM 73.4 °F 46.4 °F 38% 30.04 in 1.2 mi NE 9.2 mph - N/A   Smoke
11:00 PM 71.6 °F 46.4 °F 41% 30.04 in 1.2 mi NE 8.1 mph - N/A   Smoke
11:30 PM 72 °F 47 °F 30% 29.98 in 1 mi NE 6.9 mph - -   Smoke